[[{"header":{"parameterUnit":"m.s-1","parameterCategory":1,"la1":30.2991,"la2":30.254,"lo1":-89.0895,"lo2":-89.0444,"dx":0.0017,"dy":0.0017,"nx":28,"ny":28,"refTime":"2023-01-30T15:00:00:Z","depth":0,"parameterNumber":2,"parameterNumberName":"U-component_of_WINDS"},"data":[0,0,0,0,0,0,0,0,0,0,0,0,0,0,0,0,0,0,0,0,0,0,0,0,0,0,0,0,0,0,0,0,0,0,0,0,0,0,0,0,0,0,0,0,0,0,0,0,0,0,0,0,0,0,0,0,0,0,0.4949,0.4949,0,0.4941,0.4941,0.4941,0.4886,0.4884,0.4883,0.4882,0.4875,0.4876,0.4878,0,0,0,0,0,0,0,0,0,0,0,0,0,0.4918,0.4919,0.4949,0.4949,0.4949,0.4941,0.4941,0.4941,0.4886,0.4884,0.4882,0.4881,0.4875,0.4876,0.4878,0,0,0,0,0,0,0,0,0,0,0,0,0,0.4923,0.4919,0.4949,0.492,0.4918,0.4941,0.4941,0.4941,0.4886,0.4884,0.4882,0.488,0.4875,0.4876,0.4878,0.4929,0,0,0.4883,0.4884,0,0,0,0,0,0,0,0,0.4923,0.4924,0.4925,0.4922,0.4919,0.4912,0.4928,0.4937,0.4887,0.4898,0.4882,0.4879,0.4889,0.489,0.4893,0.4929,0.4928,0.4883,0.4884,0.4885,0.4885,0,0,0,0,0,0,0,0.4922,0.4924,0.4946,0.4925,0.4921,0.4908,0.4907,0.4929,0.4905,0.4897,0.4893,0.4893,0.4888,0.4891,0.4892,0.4928,0.4883,0.4884,0.4885,0.4886,0.5008,0.501,0,0,0,0,0,0,0.4926,0.4924,0.4946,0.4946,0.4916,0.4911,0.4909,0.4917,0.4905,0.4901,0.4894,0.489,0.489,0.489,0.4892,0.4952,0.4885,0.4886,0.4887,0.5005,0.5008,0.501,0,0,0,0,0,0,0.4925,0.4928,0.4946,0.4934,0.4935,0.4913,0.4922,0.4918,0.4921,0.4903,0.4899,0.4903,0.4888,0.4889,0.492,0.4951,0.4887,0.4889,0.5003,0.5006,0.5009,0.5073,0,0,0,0,0,0,0.4925,0.4928,0.4947,0.4935,0.4936,0.4975,0.4924,0.4919,0.4924,0.4918,0.491,0.4906,0.4886,0.4918,0.4922,0.4953,0.489,0.5,0.5004,0.5008,0.5069,0.5079,0.5087,0,0,0,0,0,0.4924,0.4966,0.4948,0.4951,0.4959,0.4977,0.4978,0.4954,0.4927,0.4946,0.4934,0.4906,0.4947,0.4922,0.4926,0.4957,0.4998,0.5003,0.5008,0.5064,0.5077,0.5087,0,0,0,0,0,0,0.4983,0.4963,0.4944,0.4983,0.4982,0.4967,0.4991,0.4967,0.4974,0.4968,0.4939,0.4937,0.4973,0.4968,0.494,0.5007,0.4968,0.4974,0.5009,0.5021,0.503,0.5031,0.4891,0,0,0,0,0,0.5,0.5016,0.4998,0.5034,0.5034,0.5013,0.502,0.5001,0.4999,0.4998,0.4989,0.4989,0.5001,0.501,0.5021,0.5067,0.5065,0.509,0.51,0.5108,0.5114,0.5139,0.5151,0.5027,0.5027,0.5027,0,0,0.5036,0.5028,0.5039,0.5046,0.5043,0.506,0.5013,0.5033,0.5046,0.5002,0.5031,0.5024,0.5021,0.5061,0.5077,0.5057,0.5147,0.5114,0.512,0.5122,0.5146,0.5158,0.5168,0.503,0.503,0.5029,0,0,0.5112,0.5106,0.5136,0.5135,0.5131,0.5116,0.5123,0.5112,0.5106,0.5135,0.5102,0.5117,0.5139,0.514,0.5143,0.5219,0.5194,0.5223,0.5273,0.5298,0.5308,0.5317,0.5346,0.5356,0.5229,0.5229,0.5229,0,0.5158,0.5183,0.5155,0.5178,0.5183,0.5142,0.5174,0.5173,0.5173,0.5177,0.5154,0.5182,0.5178,0.5217,0.5236,0.5239,0.5248,0.5225,0.5309,0.5317,0.5325,0.5352,0.5363,0.5233,0.5232,0.5232,0.5232,0,0.524,0.5258,0.5283,0.5284,0.5291,0.5318,0.5295,0.5306,0.5287,0.5275,0.5306,0.5298,0.5308,0.5315,0.5297,0.5353,0.5341,0.5314,0.5274,0.5341,0.5366,0.5376,0.5238,0.5237,0.5236,0.5235,0,0,0.5353,0.5339,0.5349,0.535,0.5343,0.5356,0.5382,0.5391,0.5401,0.5402,0.5424,0.5444,0.5419,0.5423,0.5404,0.5426,0.5489,0.5396,0.5396,0.5416,0.5553,0.5574,0.5587,0.5472,0.5474,0.5475,0.5553,0,0.5428,0.547,0.5447,0.5493,0.551,0.5473,0.5495,0.5494,0.5484,0.5497,0.5485,0.5501,0.5466,0.5468,0.5488,0.5477,0.5517,0.5471,0.5494,0.5495,0.5498,0.56,0.5623,0.5697,0.5563,0.5565,0.5566,0,0.552,0.5526,0.5574,0.5565,0.5571,0.5592,0.5599,0.5612,0.561,0.5601,0.5605,0.5581,0.5607,0.5566,0.5602,0.5571,0.5579,0.5575,0.5577,0.558,0.5536,0.5608,0.572,0.5732,0.5581,0.558,0.5579,0,0.56,0.562,0.5652,0.5653,0.5643,0.5659,0.5655,0.5651,0.5658,0.5664,0.5669,0.5678,0.5683,0.5691,0.5671,0.5643,0.571,0.5667,0.5704,0.5705,0.5722,0.5721,0.5839,0.5724,0.5723,0.5723,0.5723,0,0.5687,0.5718,0.5688,0.5708,0.5742,0.5715,0.575,0.5743,0.574,0.5758,0.5725,0.5743,0.5714,0.573,0.5714,0.5747,0.5749,0.5744,0.574,0.5748,0.5749,0.5754,0.5749,0.5726,0.5725,0.5725,0.5724,0,0.5783,0.5763,0.5796,0.5784,0.5781,0.5808,0.5798,0.5816,0.5803,0.5827,0.5831,0.5812,0.5829,0.5809,0.5823,0.5813,0.5858,0.5845,0.5859,0.5856,0.5895,0.5893,0.6022,0.6038,0.5911,0.5912,0.5913,0,0.584,0.5863,0.5854,0.5864,0.5863,0.5879,0.5886,0.586,0.587,0.587,0.5889,0.5902,0.5912,0.5941,0.5929,0.594,0.5928,0.5973,0.593,0.5938,0.5932,0.5931,0.5934,0.5982,0.5984,0.5985,0.5986,0,0.5944,0.5934,0.5946,0.5955,0.5965,0.597,0.5974,0.5984,0.5957,0.5969,0.5986,0.5993,0.6009,0.6024,0.6032,0.6029,0.6004,0.5999,0.6009,0.6019,0.6027,0.6025,0.5885,0.5997,0.5996,0.5995,0.5995,0.5994,0.6024,0.6044,0.6041,0.6055,0.6055,0.606,0.6077,0.6067,0.608,0.6091,0.6074,0.6096,0.6094,0.6103,0.6103,0.612,0.6101,0.6114,0.6118,0.6122,0.6129,0.6023,0.6121,0.6121,0.612,0.612,0.612,0,0.6128,0.6125,0.6138,0.6145,0.6157,0.6131,0.6134,0.6146,0.6165,0.6166,0.6176,0.6196,0.6211,0.62,0.6212,0.6228,0.6217,0.6232,0.6232,0.6232,0.6144,0.6136,0.6241,0.6241,0.6241,0.6241,0.6241,0.6241,0.6184,0.6217,0.6207,0.624,0.6235,0.6257,0.6261,0.6265,0.6265,0.6289,0.6301,0.6294,0.629,0.6302,0.6314,0.6311,0.6318,0.6338,0.633,0.625,0.6238,0.6226,0.6218,0.6339,0.6339,0.6416,0.6417,0.6418]},{"header":{"parameterUnit":"m.s-1","parameterCategory":1,"la1":30.2991,"la2":30.254,"lo1":-89.0895,"lo2":-89.0444,"dx":0.0017,"dy":0.0017,"nx":28,"ny":28,"refTime":"2023-01-30T15:00:00:Z","depth":0,"parameterNumber":3,"parameterNumberName":"V-component_of_WINDS"},"data":[0,0,0,0,0,0,0,0,0,0,0,0,0,0,0,0,0,0,0,0,0,0,0,0,0,0,0,0,0,0,0,0,0,0,0,0,0,0,0,0,0,0,0,0,0,0,0,0,0,0,0,0,0,0,0,0,0,0,3.6677,3.6678,0,3.6787,3.6788,3.6789,3.6781,3.6779,3.6777,3.6776,3.6885,3.6889,3.6893,0,0,0,0,0,0,0,0,0,0,0,0,0,3.6456,3.646,3.6677,3.6678,3.668,3.6787,3.6788,3.679,3.6781,3.6779,3.6777,3.6775,3.6883,3.6888,3.6894,0,0,0,0,0,0,0,0,0,0,0,0,0,3.6557,3.6461,3.6677,3.6688,3.6691,3.6786,3.6788,3.679,3.6781,3.6779,3.6776,3.6774,3.6881,3.6888,3.6894,3.6985,0,0,3.6915,3.6917,0,0,0,0,0,0,0,0,3.6552,3.6565,3.6685,3.6688,3.669,3.6768,3.675,3.6855,3.6782,3.6747,3.6776,3.6773,3.6847,3.6857,3.6883,3.699,3.6994,3.6915,3.6919,3.6922,3.6924,0,0,0,0,0,0,0,3.6545,3.6561,3.672,3.6687,3.669,3.6687,3.6699,3.677,3.6809,3.675,3.6749,3.6763,3.6848,3.6876,3.6885,3.6996,3.6915,3.6921,3.6925,3.6928,3.7182,3.7184,0,0,0,0,0,0,3.6535,3.6555,3.6717,3.6724,3.6614,3.6693,3.6706,3.6745,3.6809,3.6816,3.6765,3.6762,3.6866,3.6877,3.6889,3.6999,3.6922,3.6928,3.6932,3.7179,3.7182,3.7185,0,0,0,0,0,0,3.6531,3.655,3.6712,3.6639,3.666,3.6699,3.6744,3.6749,3.6777,3.682,3.6827,3.6786,3.6865,3.6879,3.6961,3.7003,3.6931,3.6937,3.7176,3.718,3.7184,3.722,0,0,0,0,0,0,3.6524,3.6548,3.6584,3.664,3.6664,3.6784,3.6746,3.6753,3.6789,3.6786,3.6842,3.6849,3.6864,3.6951,3.6968,3.701,3.6942,3.7172,3.7178,3.7183,3.7215,3.7225,3.7233,0,0,0,0,0,3.6517,3.6589,3.6586,3.6606,3.6709,3.6787,3.68,3.6817,3.6792,3.6828,3.6855,3.6847,3.6995,3.696,3.6978,3.7023,3.717,3.7176,3.7182,3.7211,3.7223,3.7233,0,0,0,0,0,0,3.6536,3.6597,3.6594,3.6687,3.6732,3.6785,3.6831,3.6829,3.6881,3.6876,3.6893,3.6906,3.6988,3.7013,3.6973,3.7114,3.7079,3.7089,3.7094,3.7106,3.7115,3.7107,3.6948,0,0,0,0,0,3.6551,3.661,3.6659,3.6737,3.6759,3.6791,3.6825,3.6835,3.6881,3.69,3.6933,3.6978,3.7034,3.7071,3.7126,3.7218,3.723,3.7258,3.7267,3.7274,3.7283,3.7334,3.7347,3.7206,3.7206,3.7206,0,0,3.6583,3.6623,3.6659,3.6742,3.6777,3.6837,3.6807,3.6872,3.6916,3.6909,3.6989,3.7015,3.7065,3.7153,3.7193,3.7177,3.7324,3.7282,3.7287,3.7293,3.7341,3.7355,3.7367,3.721,3.7209,3.7209,0,0,3.6672,3.6708,3.6777,3.6814,3.6869,3.6889,3.6905,3.6959,3.6977,3.7057,3.7053,3.7105,3.7202,3.7238,3.7269,3.7371,3.7365,3.7388,3.7435,3.7484,3.7495,3.7505,3.7541,3.7554,3.7396,3.7396,3.7396,0,3.6704,3.6796,3.6812,3.6878,3.6914,3.6911,3.698,3.7014,3.7083,3.7108,3.7088,3.721,3.7244,3.734,3.7365,3.739,3.7408,3.7382,3.7492,3.7502,3.7512,3.7547,3.756,3.7399,3.7398,3.7398,3.7398,0,3.6833,3.6896,3.6944,3.7013,3.7054,3.7121,3.7146,3.7186,3.719,3.7212,3.7294,3.7334,3.7397,3.7419,3.7424,3.7516,3.7504,3.7488,3.7454,3.7527,3.7561,3.7574,3.7402,3.7401,3.7401,3.74,0,0,3.6939,3.7015,3.7033,3.7064,3.7124,3.7172,3.7238,3.73,3.7334,3.7381,3.7436,3.7518,3.7503,3.7539,3.7547,3.759,3.7668,3.7569,3.757,3.7587,3.7772,3.7785,3.78,3.7664,3.7667,3.7669,3.7768,0,3.7035,3.7153,3.717,3.7274,3.7332,3.733,3.7387,3.7429,3.7451,3.7502,3.7525,3.7584,3.756,3.7581,3.7624,3.765,3.7706,3.7643,3.7715,3.7718,3.7705,3.7817,3.7831,3.7923,3.7781,3.7783,3.7785,0,3.7163,3.7215,3.7326,3.7378,3.7403,3.7454,3.7512,3.7561,3.7608,3.7621,3.766,3.7663,3.773,3.7692,3.7783,3.774,3.777,3.7787,3.7791,3.78,3.7757,3.783,3.7953,3.7967,3.7805,3.7804,3.7802,0,3.723,3.7328,3.7407,3.7433,3.7495,3.7531,3.7559,3.7603,3.7639,3.7689,3.7713,3.7769,3.78,3.7843,3.7861,3.7831,3.7952,3.7915,3.7964,3.7964,3.7991,3.7989,3.8121,3.8008,3.8008,3.8007,3.8007,0,3.7337,3.7405,3.7438,3.7487,3.7562,3.7579,3.7653,3.7679,3.7718,3.7771,3.7771,3.782,3.784,3.7891,3.7905,3.7979,3.7993,3.8004,3.8007,3.8005,3.8004,3.8026,3.8021,3.8011,3.801,3.801,3.8009,0,3.7425,3.7451,3.7537,3.7588,3.7603,3.7656,3.77,3.7746,3.7767,3.7833,3.785,3.7882,3.7943,3.7964,3.8038,3.8047,3.8133,3.813,3.8118,3.8119,3.8167,3.8163,3.8319,3.8341,3.8212,3.8213,3.8214,0,3.7493,3.7545,3.7602,3.7638,3.7667,3.7725,3.7762,3.778,3.7818,3.7875,3.7914,3.7975,3.8025,3.8122,3.8151,3.8207,3.8206,3.8257,3.8214,3.821,3.8208,3.8205,3.821,3.8265,3.8266,3.8267,3.8268,0,3.7609,3.7619,3.7673,3.7732,3.7777,3.7823,3.7868,3.7897,3.7921,3.7964,3.8027,3.8066,3.8141,3.8201,3.8258,3.8284,3.8281,3.8281,3.8296,3.8295,3.8286,3.8293,3.8141,3.8278,3.8277,3.8276,3.8276,3.8275,3.769,3.7737,3.7784,3.7845,3.788,3.7922,3.7969,3.7995,3.8049,3.8113,3.8119,3.8187,3.8231,3.8307,3.8336,3.8388,3.8374,3.8395,3.84,3.8405,3.841,3.8277,3.8398,3.8398,3.8398,3.8397,3.8397,0,3.7808,3.7838,3.7893,3.7957,3.8004,3.7997,3.8046,3.8085,3.8146,3.8188,3.8237,3.8308,3.8366,3.84,3.8457,3.8493,3.8492,3.8507,3.8506,3.8512,3.8418,3.8401,3.8507,3.8507,3.8507,3.8507,3.8506,3.8506,3.7874,3.7953,3.7968,3.8064,3.8093,3.8161,3.819,3.8228,3.8262,3.8342,3.8391,3.8413,3.8451,3.8511,3.8563,3.8571,3.8593,3.861,3.8617,3.8529,3.8518,3.8507,3.8491,3.8614,3.8614,3.8706,3.8706,3.8707]}]]